Location: ??
(31.9467°N, 34.8903°E)
Time: 18:39:06
(UTC+00:00)

Cosmos 1992 Rocket - Pass Details

Date: 29 October 2020
Orbit: 759 x 766 km, 74.0° (Epoch: 30 November)

Event Time Altitude Azimuth Distance (km) Brightness Sun altitude
Rises 15:47:30 0° 196° (SSW) 3,203 7.6 -12.1°
Reaches altitude 10° 15:49:52 10° 197° (SSW) 2,281 6.8 -12.6°
Maximum altitude 15:55:02 85° 286° (WNW) 765 4.0 -13.7°
Drops below altitude 10° 16:00:15 10° 15° (NNE) 2,291 6.2 -14.8°
Sets 16:02:37 0° 16° (NNE) 3,220 7.0 -15.3°
